Location: Anjeux
(47.8815°N, 6.2076°E)
Time: 19:50:05
(UTC+00:00)

Cosmos 1782 - Pass Details

Date: 05 March 2021
Orbit: 536 x 551 km, 82.5° (Epoch: 22 April)

Event Time Altitude Azimuth Distance (km) Brightness Sun altitude
Rises 05:04:09 0° 184° (S) 2,675 6.2 -11.5°
Reaches altitude 10° 05:06:17 10° 183° (S) 1,790 5.4 -11.2°
Maximum altitude 05:10:12 77° 99° (E) 558 3.0 -10.5°
Drops below altitude 10° 05:14:11 10° 12° (NNE) 1,812 5.6 -9.9°
Sets 05:16:22 0° 11° (N) 2,712 6.5 -9.5°
